Weather History for Westhampton Beach, NY

Change the Weather History Date:

Saturday, August 16, 2014

  Actual Average Record
Temperature  
Mean Temperature 65 °F -  
Max Temperature 78 °F 77 °F 89 °F (1997)
Min Temperature 53 °F 61 °F 51 °F (2001)
Growing Degree Days 15 (Base 50)    
Moisture  
Dew Point 55 °F    
Average Humidity 67    
Maximum Humidity 89    
Minimum Humidity 40    
Precipitation  
Precipitation 0.00 in - - ()
Sea Level Pressure  
Sea Level Pressure 29.99 in    
Wind  
Wind Speed 4 mph (SW)    
Max Wind Speed 15 mph    
Max Gust Speed 24 mph    
Visibility 10 miles    
Events      
Averages and records for this station are not official NWS values.
T = Trace of Precipitation, MM = Missing Value Source: NWS Daily Summary

Daily Weather History Graph

Daily Weather History Graph

Search for Another Location

Airport:

Trip Planner

Search our weather history database for the weather conditions in past years. The results will help you decide how hot, cold, wet, or windy it might be!

Date:

Astronomy

Aug. 16, 2014 Rise Set
Actual Time 6:01 AM EDT 7:47 PM EDT
Civil Twilight 5:32 AM EDT 8:16 PM EDT
Nautical Twilight 4:56 AM EDT 8:52 PM EDT
Astronomical Twilight 4:18 AM EDT 9:30 PM EDT
Moon 11:25 PM EDT (8/16) 12:47 PM EDT (8/16)
Length of Visible Light 14h 44m
Length of Day
13h 45m
Waning Gibbous, 59% of the Moon is Illuminated
Aug 16
Waning Gibbous
Aug 17
Last Quarter
Aug 25
New
Sep 2
First Quarter
Sep 8
Full

Hourly Weather History & Observations

Time (EDT) Temp. Dew Point Humidity Pressure Visibility Wind Dir Wind Speed Gust Speed Precip Events Conditions
1:53 AM 60.1 °F 54.0 °F 80% 29.99 in 10.0 mi Calm Calm - N/A   Overcast
2:53 AM 60.1 °F 54.0 °F 80% 29.99 in 10.0 mi Calm Calm - N/A   Overcast
3:53 AM 61.0 °F 55.0 °F 81% 29.99 in 10.0 mi Calm Calm - N/A   Overcast
4:53 AM 55.9 °F 51.1 °F 84% 30.00 in 10.0 mi Calm Calm - N/A   Clear
5:53 AM 53.1 °F 48.9 °F 86% 30.00 in 10.0 mi Calm Calm - N/A   Clear
6:53 AM 55.0 °F 52.0 °F 89% 30.01 in 10.0 mi Calm Calm - N/A   Clear
7:53 AM 66.9 °F 59.0 °F 76% 30.01 in 10.0 mi WSW 3.5 mph - N/A   Clear
8:53 AM 72.0 °F 57.9 °F 61% 30.02 in 10.0 mi WSW 9.2 mph - N/A   Clear
9:53 AM 73.9 °F 52.0 °F 46% 30.03 in 10.0 mi WSW 9.2 mph - N/A   Clear
10:53 AM 75.0 °F 52.0 °F 44% 30.03 in 10.0 mi SW 11.5 mph 17.3 mph N/A   Clear
11:53 AM 75.9 °F 54.0 °F 46% 30.03 in 10.0 mi SW 10.4 mph 18.4 mph N/A   Clear
12:53 PM 77.0 °F 53.1 °F 43% 30.02 in 10.0 mi SW 15.0 mph 24.2 mph N/A   Clear
1:53 PM 77.0 °F 51.1 °F 40% 30.01 in 10.0 mi WSW 15.0 mph 20.7 mph N/A   Clear
2:53 PM 75.9 °F 52.0 °F 43% 30.00 in 10.0 mi WSW 15.0 mph 23.0 mph N/A   Clear
3:53 PM 73.9 °F 55.0 °F 52% 30.00 in 10.0 mi SW 8.1 mph - N/A   Clear
4:53 PM 73.0 °F 57.0 °F 57% 29.99 in 10.0 mi SW 11.5 mph - N/A   Clear
5:53 PM 73.9 °F 60.1 °F 62% 29.97 in 10.0 mi SW 11.5 mph - N/A   Clear
6:53 PM 73.0 °F 61.0 °F 66% 29.96 in 10.0 mi South 8.1 mph - N/A   Clear
7:53 PM 69.1 °F 60.1 °F 73% 29.96 in 10.0 mi Calm Calm - N/A   Partly Cloudy
8:53 PM 64.9 °F 59.0 °F 81% 29.96 in 10.0 mi Calm Calm - N/A   Clear
9:53 PM 62.1 °F 57.0 °F 84% 29.96 in 10.0 mi Calm Calm - N/A   Clear
10:53 PM 63.0 °F 57.9 °F 84% 29.94 in 10.0 mi Calm Calm - N/A   Clear
11:53 PM 63.0 °F 59.0 °F 87% 29.94 in 10.0 mi Calm Calm - N/A   Clear